Location: Unspecified
(47.8330°N, 0.0000°E)
Time: 14:58:35
(UTC+00:00)

Tiangong 2 - Visible Passes

Search period start: 20 May 2019 00:00
Search period end: 30 May 2019 00:00
Orbit: 379 x 387 km, 42.8° (Epoch: 20 May)

Date Brightness Start Highest point End Pass type
(mag) Time Alt. Az. Time Alt. Az. Time Alt. Az.
20 May 2.5 20:57:47 10° SSW 21:00:08 20° SSE 21:00:27 19° SSE visible
21 May 2.1 21:33:42 10° SW 21:36:04 28° S 21:36:04 28° S visible
22 May 2.2 20:33:59 10° SW 20:36:37 25° SSE 20:39:08 11° ESE visible
22 May 3.0 22:10:05 10° WSW 22:11:20 19° SW 22:11:20 19° SW visible
23 May 1.9 21:10:10 10° WSW 21:13:01 32° S 21:14:10 24° SE visible
24 May 2.2 21:46:40 10° WSW 21:49:04 27° SSW 21:49:04 27° SSW visible
25 May 2.0 20:46:41 10° WSW 20:49:31 31° S 20:51:41 14° SE visible
25 May 3.7 22:23:33 10° WSW 22:23:51 11° WSW 22:23:51 11° WSW visible
26 May 2.4 21:23:18 10° WSW 21:25:52 23° SSW 21:26:25 22° S visible
27 May 2.2 20:23:13 10° WSW 20:25:58 28° S 20:28:42 10° SE visible
27 May 3.6 22:00:41 10° SW 22:01:07 11° SW 22:01:07 11° SW visible
28 May 2.9 21:00:03 10° WSW 21:02:14 18° SSW 21:03:38 14° SSE visible
